DECAYED

STARLINK-1509, 45766 (Decayed)

Orbit data source: Space-Track

STARLINK-1509, 45766 was a payload satellite owned by SpaceX/Seattle (US) in LEO that was launched on Sat, 13 Jun 2020 UTC via an FALCON 9 launch vehicle from the Air Force Eastern Test Range (AFETR). Payload-class satellites include a variety of spacecraft equipped with specific instruments for various scientific and technological missions. These include communications satellites like Starlink; space stations such as the ISS; scientific satellites like the Hubble; Earth observation satellites from companies like Planet Labs, Umbra, and HawkEye 360; GPS; miniature CubeSats for education and research; and military/defense satellites.

Not visible in the next 10 days
Identifier
45766, 2020-038AN
Orbit
Decayed
Last TLE update
7 months ago
Origin
Manufacturer
SpaceX/Seattle
Mission
Decayed Commercial Communications
Bus & Motor
STARLINK, Unknown motor
Mass
260 kg wet, ~248 kg dry
Launch date (UTC)
2020-06-13 (5 years ago)
Launch vehicle
FALCON 9
Launch site
Air Force Eastern Test Range (AFETR)
Object type
Payload
Rocket body
Debris
Shape & HBR
Box + 1 Pan, 8.86 m
Radar Cross Section
13.562 m², Large (>1 m²)

Expand to show TLE details & history

TLE from 7 months ago
0 STARLINK-1509
1 45766U 20038AN  24329.58639442  .12678913  12479-4  55143-3 0  9997
2 45766  53.0176  24.3587 0000748  35.7308 119.3222 16.43828378248549
Epoch: 2024-11-24T14:04Z
TLE epoch observation values (Epoch: 2024-11-24T14:04:24.477Z)
Latitude
19.72697°
Longitude
-86.3402°
Altitude
156.335 km
Speed
7.815 km/s
True Right ascension
12h 35m 08s
True Declination
19° 36' 29"
Sunlit
Object was in daylight at epoch
Visualization orbit readout
Visualization observer readout
Orbital elements
Apogee altitude
156.42 km
Perigee altitude
155.442 km
Semi-major axis
6,534.068 km
Eccentricity
0.00007
Inclination
53.0176°
RAAN
24.3587°
Arg. of periapsis
35.7308°
True anomaly
Unknown
Mean anomaly
119.3222°
Eccentric anomaly
Unknown
Mean motion
4.1093 °/min
Orbital period
87.61 mins
BSTAR
0.00055143
Loading maneuver chart data...
Loading SW <> Apogee altitude chart data...
Loading historical data...
Loading historical data...
Loading historical data...
Loading historical data...
Loading historical data...
Loading historical data...
Loading historical data...

STARLINK-1509 Visibility

Observer location: undefined°, undefined°

This satellite is decayed
Span
Click to sort rows by Start time (UTC) header in descending order
Start Az.
Max El. time (UTC)
Max El. Az.
Max El.
End time (UTC)
End Az.
|